White Plains, CT

6:14 PM EST on November 12, 2019 (GMT -0500)
Westchester County

Weather History for KHPN - September, 2019

Change the Weather History Date:

Saturday, September 21, 2019

  Actual Average Record
Temperature  
Mean Temperature 68 °F -  
Max Temperature 80 °F 69 °F 85 °F (1980)
Min Temperature 55 °F 52 °F 43 °F (1991)
Cooling Degree Days 2    
Growing Degree Days 18 (Base 50)    
Moisture  
Dew Point 54 °F    
Average Humidity 65    
Maximum Humidity 90    
Minimum Humidity 40    
Precipitation  
Precipitation 0.00 in - - ()
Sea Level Pressure  
Sea Level Pressure 30.18 in    
Wind  
Wind Speed 5 mph ()    
Max Wind Speed 8 mph    
Max Gust Speed -    
Visibility 10.0 miles    
Events      
Averages and records for this station are not official NWS values.
T = Trace of Precipitation, MM = Missing Value Source: Averaged Metar Reports

Daily Weather History Graph

Daily Weather History Graph

Search for Another Location

Airport or City:

Astronomy

Sep. 21, 2019 Rise Set
Actual Time 6:41 AM EDT 6:54 PM EDT
Civil Twilight 6:13 AM EDT 7:21 PM EDT
Nautical Twilight 5:41 AM EDT 7:53 PM EDT
Astronomical Twilight 5:08 AM EDT 8:26 PM EDT
Moon 11:26 PM EDT (9/21) 1:47 PM EDT (9/21)
Length of Visible Light 13h 08m
Length of Day
12h 13m
Waning Gibbous, 55% of the Moon is Illuminated
Sep 21
Waning Gibbous
Sep 21
Last Quarter
Sep 28
New
Oct 5
First Quarter
Oct 13
Full

Hourly Weather History & Observations

Time (EDT) Temp. Heat Index Dew Point Humidity Pressure Visibility Wind Dir Wind Speed Gust Speed Precip Events Conditions
12:56 AM 63.0 °F - 51.1 °F 65% 30.17 in 10.0 mi WNW 6.9 mph - N/A   Clear
1:56 AM 57.0 °F - 51.1 °F 81% 30.17 in 10.0 mi WNW 4.6 mph - N/A   Clear
2:56 AM 55.9 °F - 51.1 °F 84% 30.18 in 10.0 mi NW 3.5 mph - N/A   Clear
3:56 AM 55.9 °F - 52.0 °F 87% 30.18 in 10.0 mi NNW 6.9 mph - N/A   Clear
4:56 AM 57.0 °F - 53.1 °F 87% 30.18 in 10.0 mi WNW 4.6 mph - N/A   Clear
5:56 AM 55.9 °F - 51.1 °F 84% 30.19 in 10.0 mi NW 8.1 mph - N/A   Clear
6:56 AM 55.9 °F - 50.0 °F 80% 30.20 in 10.0 mi NW 4.6 mph - N/A   Clear
7:56 AM 61.0 °F - 54.0 °F 78% 30.21 in 10.0 mi NW 4.6 mph - N/A   Clear
8:56 AM 66.9 °F - 54.0 °F 63% 30.22 in 10.0 mi NW 5.8 mph - N/A   Clear
9:56 AM 72.0 °F - 52.0 °F 49% 30.22 in 10.0 mi North 8.1 mph - N/A   Clear
10:56 AM 75.0 °F - 53.1 °F 46% 30.22 in 10.0 mi North 8.1 mph - N/A   Clear
11:56 AM 78.1 °F - 54.0 °F 43% 30.21 in 10.0 mi Variable 4.6 mph - N/A   Clear
12:56 PM 80.1 °F 80.0 °F 54.0 °F 40% 30.19 in 10.0 mi Calm Calm - N/A   Clear
1:56 PM 79.0 °F - 55.0 °F 44% 30.18 in 10.0 mi SE 8.1 mph - N/A   Clear
2:56 PM 80.1 °F 80.0 °F 54.0 °F 40% 30.17 in 10.0 mi SSE 6.9 mph - N/A   Clear
3:56 PM 80.1 °F 80.0 °F 54.0 °F 40% 30.17 in 10.0 mi SE 5.8 mph - N/A   Clear
4:56 PM 79.0 °F - 54.0 °F 42% 30.16 in 10.0 mi SE 6.9 mph - N/A   Clear
5:56 PM 75.9 °F - 55.0 °F 48% 30.15 in 10.0 mi SSE 3.5 mph - N/A   Clear
6:56 PM 71.1 °F - 55.9 °F 59% 30.16 in 10.0 mi Calm Calm - N/A   Clear
7:56 PM 66.0 °F - 55.0 °F 68% 30.17 in 10.0 mi Calm Calm - N/A   Clear
8:56 PM 64.9 °F - 54.0 °F 68% 30.17 in 10.0 mi Calm Calm - N/A   Clear
9:56 PM 63.0 °F - 57.0 °F 81% 30.18 in 10.0 mi NW 3.5 mph - N/A   Clear
10:56 PM 61.0 °F - 57.0 °F 87% 30.17 in 10.0 mi NW 5.8 mph - N/A   Clear
11:56 PM 62.1 °F - 59.0 °F 90% 30.17 in 10.0 mi WNW 4.6 mph - N/A   Clear